Weather History for Hutchinson, MN

Change the Weather History Date:

Wednesday, February 5, 2014

  Actual Average Record
Temperature  
Mean Temperature -2 °F -  
Max Temperature 3 °F 21 °F 52 °F (1990)
Min Temperature -9 °F 2 °F -27 °F (1979)
Degree Days  
Heating Degree Days 68    
Moisture  
Dew Point -9 °F    
Average Humidity 71    
Maximum Humidity 81    
Minimum Humidity 63    
Precipitation  
Precipitation 0.00 in - - ()
Sea Level Pressure  
Sea Level Pressure 30.51 in    
Wind  
Wind Speed 13 mph (NW)    
Max Wind Speed 17 mph    
Max Gust Speed 22 mph    
Visibility 8 miles    
Events Snow    
Averages and records for this station are not official NWS values.
T = Trace of Precipitation, MM = Missing Value Source: NWS Daily Summary

Daily Weather History Graph

Daily Weather History Graph

Search for Another Location

Airport:

Trip Planner

Search our weather history database for the weather conditions in past years. The results will help you decide how hot, cold, wet, or windy it might be!

Date:

Astronomy

Feb. 05, 2014 Rise Set
Actual Time 7:32 AM CST 5:31 PM CST
Civil Twilight 7:01 AM CST 6:02 PM CST
Nautical Twilight 6:26 AM CST 6:37 PM CST
Astronomical Twilight 5:52 AM CST 7:11 PM CST
Moon 10:29 AM CST (2/5) No Moon Set
Length of Visible Light 11h 01m
Length of Day
9h 59m
Waxing Crescent, 39% of the Moon is Illuminated
Feb 5
Waxing Crescent
Feb 6
First Quarter
Feb 14
Full
Feb 22
Last Quarter
Mar 1
New

Hourly Weather History & Observations

Time (CST) Temp. Windchill Dew Point Humidity Pressure Visibility Wind Dir Wind Speed Gust Speed Precip Events Conditions
12:12 AM -0.9 °F -20.6 °F -10.5 °F 64% 30.48 in 10.0 mi NNW 15.0 mph - N/A   Clear
12:33 AM -1.3 °F -21.0 °F -10.5 °F 65% 30.49 in 10.0 mi NNW 15.0 mph - N/A   Clear
12:53 AM -1.3 °F -21.0 °F -10.7 °F 65% 30.49 in 10.0 mi NNW 15.0 mph 19.6 mph N/A   Mostly Cloudy
1:13 AM -1.3 °F -21.7 °F -10.5 °F 65% 30.49 in 10.0 mi NNW 16.1 mph 21.9 mph N/A   Mostly Cloudy
1:33 AM -1.3 °F -20.3 °F -10.5 °F 65% 30.49 in 10.0 mi NNW 13.8 mph - N/A   Scattered Clouds
1:53 AM -1.3 °F -21.7 °F -10.7 °F 65% 30.49 in 10.0 mi NNW 16.1 mph 21.9 mph N/A   Clear
2:13 AM -1.5 °F -21.3 °F -11.2 °F 63% 30.50 in 10.0 mi NNW 15.0 mph - N/A   Clear
2:33 AM -1.7 °F -22.2 °F -11.2 °F 64% 30.51 in 10.0 mi NNW 16.1 mph - N/A   Clear
2:53 AM -1.7 °F -20.8 °F -11.2 °F 64% 30.51 in 10.0 mi NNW 13.8 mph 20.7 mph N/A   Clear
3:13 AM -1.7 °F -20.8 °F -11.4 °F 63% 30.50 in 10.0 mi NNW 13.8 mph - N/A   Clear
3:33 AM -1.8 °F -19.4 °F -11.6 °F 63% 30.50 in 10.0 mi NW 11.5 mph - N/A   Clear
3:53 AM -2.2 °F -19.9 °F -11.6 °F 64% 30.51 in 10.0 mi NW 11.5 mph - N/A   Scattered Clouds
4:13 AM -2.2 °F -19.9 °F -11.4 °F 65% 30.51 in 10.0 mi NW 11.5 mph - N/A   Mostly Cloudy
4:32 AM -2.2 °F -19.9 °F -11.2 °F 66% 30.51 in 10.0 mi NW 11.5 mph - N/A   Overcast
4:53 AM -2.2 °F -21.5 °F -11.2 °F 66% 30.51 in 10.0 mi NNW 13.8 mph - N/A   Overcast
5:13 AM -2.2 °F -19.9 °F -11.2 °F 66% 30.50 in 10.0 mi NNW 11.5 mph - N/A   Overcast
5:33 AM -2.6 °F -18.4 °F -11.2 °F 67% 30.50 in 10.0 mi NW 9.2 mph - N/A   Overcast
5:53 AM -2.6 °F -18.4 °F -11.2 °F 67% 30.50 in 10.0 mi NW 9.2 mph - N/A   Mostly Cloudy
6:13 AM -2.6 °F -18.4 °F -11.2 °F 67% 30.50 in 10.0 mi NW 9.2 mph - N/A   Overcast
6:33 AM -2.7 °F -18.6 °F -11.0 °F 68% 30.50 in 10.0 mi NW 9.2 mph - N/A   Overcast
6:53 AM -2.7 °F -18.6 °F -10.5 °F 70% 30.50 in 10.0 mi NW 9.2 mph - N/A   Overcast
7:13 AM -2.7 °F -20.5 °F -10.3 °F 70% 30.50 in 10.0 mi NW 11.5 mph - N/A   Overcast
7:33 AM -2.6 °F -21.1 °F -10.3 °F 70% 30.50 in 10.0 mi NW 12.7 mph - N/A   Overcast
7:53 AM -2.4 °F -19.2 °F -9.6 °F 71% 30.51 in 10.0 mi NW 10.4 mph - N/A   Overcast
8:13 AM -2.2 °F -20.7 °F -9.6 °F 71% 30.51 in 10.0 mi NW 12.7 mph - N/A   Mostly Cloudy
8:33 AM -1.7 °F -19.2 °F -9.2 °F 70% 30.51 in 10.0 mi NW 11.5 mph - N/A   Overcast
8:53 AM -1.3 °F -18.7 °F -8.5 °F 72% 30.52 in 10.0 mi NW 11.5 mph - N/A   Overcast
9:13 AM -0.8 °F -17.2 °F -8.0 °F 72% 30.52 in 10.0 mi NW 10.4 mph - N/A   Overcast
9:33 AM -0.4 °F -16.7 °F -7.1 °F 73% 30.53 in 3.0 mi NW 10.4 mph - N/A   Haze
9:53 AM -0.0 °F -15.3 °F -6.3 °F 75% 30.54 in 4.0 mi WNW 9.2 mph - N/A Snow Light Snow
10:13 AM 0.3 °F -16.7 °F -5.8 °F 75% 30.54 in 4.0 mi NW 11.5 mph - N/A   Haze
10:33 AM 0.9 °F -17.6 °F -5.4 °F 75% 30.54 in 4.0 mi NW 13.8 mph - N/A   Haze
10:53 AM 1.2 °F -16.4 °F -5.4 °F 74% 30.54 in 5.0 mi NW 12.7 mph - N/A   Haze
11:13 AM 1.8 °F -16.4 °F -5.3 °F 72% 30.54 in 5.0 mi NW 13.8 mph - N/A   Haze
11:33 AM 2.1 °F -15.2 °F -4.7 °F 73% 30.53 in 5.0 mi NW 12.7 mph - N/A   Haze
11:53 AM 2.3 °F -14.2 °F -4.7 °F 72% 30.53 in 4.0 mi NW 11.5 mph - N/A   Haze
12:13 PM 2.8 °F -13.5 °F -4.5 °F 71% 30.52 in 5.0 mi NW 11.5 mph 16.1 mph N/A   Haze
12:33 PM 3.2 °F -14.6 °F -4.4 °F 71% 30.52 in 5.0 mi NW 13.8 mph - N/A   Haze
12:53 PM 3.4 °F -14.4 °F -4.2 °F 71% 30.51 in 5.0 mi WNW 13.8 mph - N/A   Haze
1:13 PM 3.9 °F -15.0 °F -4.2 °F 69% 30.51 in 5.0 mi NW 16.1 mph 21.9 mph N/A   Haze
1:33 PM 3.9 °F -14.3 °F -4.4 °F 69% 30.50 in 4.0 mi NW 15.0 mph - N/A   Haze
1:53 PM 3.6 °F -15.4 °F -5.3 °F 67% 30.50 in 10.0 mi NW 16.1 mph 21.9 mph N/A   Mostly Cloudy
2:13 PM 3.4 °F -16.3 °F -5.1 °F 68% 30.50 in 10.0 mi NW 17.3 mph 20.7 mph N/A   Mostly Cloudy
2:33 PM 3.2 °F -14.6 °F -5.3 °F 68% 30.50 in 4.0 mi NW 13.8 mph - N/A   Haze
2:53 PM 3.2 °F -15.9 °F -5.1 °F 68% 30.50 in 3.0 mi NW 16.1 mph - N/A   Haze
3:13 PM 3.0 °F -16.7 °F -5.1 °F 69% 30.50 in 5.0 mi NW 17.3 mph - N/A   Haze
3:33 PM 3.2 °F -15.9 °F -4.4 °F 71% 30.50 in 0.2 mi NW 16.1 mph - N/A Snow Snow
3:52 PM 3.2 °F -15.3 °F -4.9 °F 69% 30.50 in 0.8 mi NW 15.0 mph - N/A Snow Light Snow
4:13 PM 2.3 °F -15.0 °F -4.0 °F 75% 30.51 in 4.0 mi NW 12.7 mph - N/A   Haze
4:33 PM 2.7 °F -14.5 °F -5.8 °F 68% 30.50 in 7.0 mi WNW 12.7 mph - N/A   Mostly Cloudy
4:52 PM 1.9 °F -12.9 °F -5.6 °F 71% 30.50 in 10.0 mi WNW 9.2 mph - N/A   Clear
5:13 PM 1.2 °F -16.4 °F -5.3 °F 74% 30.50 in 10.0 mi West 12.7 mph - N/A   Scattered Clouds
5:33 PM 0.3 °F -17.5 °F -5.8 °F 75% 30.51 in 10.0 mi WNW 12.7 mph - N/A   Clear
5:53 PM -0.4 °F -16.7 °F -7.4 °F 72% 30.51 in 10.0 mi WNW 10.4 mph - N/A   Clear
6:13 PM -1.1 °F -17.6 °F -7.6 °F 74% 30.51 in 10.0 mi West 10.4 mph - N/A   Clear
6:33 PM -1.5 °F -19.0 °F -8.0 °F 74% 30.51 in 10.0 mi WNW 11.5 mph - N/A   Clear
6:53 PM -2.2 °F -19.9 °F -9.2 °F 72% 30.51 in 10.0 mi WNW 11.5 mph - N/A   Clear
7:13 PM -2.7 °F -22.1 °F -9.4 °F 73% 30.51 in 10.0 mi WNW 13.8 mph - N/A   Clear
7:33 PM -3.3 °F -22.1 °F -9.6 °F 74% 30.51 in 10.0 mi WNW 12.7 mph - N/A   Clear
7:53 PM -4.0 °F -23.0 °F -10.3 °F 74% 30.51 in 10.0 mi WNW 12.7 mph - N/A   Clear
8:12 PM -4.2 °F -23.2 °F -10.5 °F 74% 30.51 in 10.0 mi WNW 12.7 mph - N/A   Clear
8:33 PM -4.5 °F -22.8 °F -10.8 °F 74% 30.51 in 10.0 mi WNW 11.5 mph 17.3 mph N/A   Clear
8:53 PM -4.9 °F -23.2 °F -10.7 °F 76% 30.51 in 10.0 mi WNW 11.5 mph - N/A   Clear
9:13 PM -5.1 °F -23.5 °F -11.0 °F 76% 30.51 in 10.0 mi WNW 11.5 mph - N/A   Clear
9:33 PM -5.6 °F -24.1 °F -11.2 °F 77% 30.51 in 10.0 mi WNW 11.5 mph - N/A   Clear
9:53 PM -6.0 °F -21.5 °F -11.2 °F 78% 30.51 in 10.0 mi WNW 8.1 mph - N/A   Clear
10:13 PM -6.2 °F -21.7 °F -11.6 °F 77% 30.51 in 10.0 mi WNW 8.1 mph - N/A   Clear
10:33 PM -6.5 °F -22.1 °F -11.7 °F 78% 30.50 in 10.0 mi West 8.1 mph - N/A   Clear
10:53 PM -7.1 °F -21.4 °F -12.1 °F 79% 30.49 in 10.0 mi WNW 6.9 mph - N/A   Clear
11:13 PM -7.2 °F -23.0 °F -11.9 °F 80% 30.49 in 10.0 mi WNW 8.1 mph - N/A   Clear
11:33 PM -8.1 °F -24.1 °F -12.8 °F 80% 30.49 in 10.0 mi West 8.1 mph - N/A   Clear
11:53 PM -9.2 °F -24.0 °F -13.5 °F 81% 30.48 in 10.0 mi West 6.9 mph - N/A   Clear